Location: Alpha Ridge Park
(39.3209°N, 76.9128°W)
Time: 11:18:46
(UTC-04:00)

Vanguard 2 Rocket - Pass Details

Date: 21 May 2019
Orbit: 554 x 3326 km, 32.9° (Epoch: 19 June)

Event Time Altitude Azimuth Distance (km) Brightness Sun altitude
Rises 11:55:48 0° 273° (W) 5,365 10.7 65.9°
Reaches altitude 10° 12:00:16 10° 268° (W) 3,879 10.1 66.5°
Maximum altitude 12:08:37 39° 204° (SSW) 1,569 9.0 67.5°
Drops below altitude 10° 12:13:46 10° 136° (SE) 2,373 9.5 68.0°
Sets 12:15:54 0° 127° (SE) 3,104 9.9 68.3°
